Location: Meinert
(37.9441°N, 122.0275°W)
Time: 19:00:23
(UTC+00:00)

Chandra Rocket (1) - Pass Details

Date: 18 April 2024
Orbit: 293 x 10893 km, 28.4° (Epoch: 23 May)

Event Time Altitude Azimuth Distance (km) Brightness Sun altitude
Exits shadow 12:12:33 17° 195° (SSW) 1,216 3.2 -14.7°
Maximum altitude 12:13:48 21° 163° (SSE) 1,261 3.5 -14.4°
Drops below altitude 10° 12:18:03 10° 114° (ESE) 2,765 5.9 -13.7°
Sets 12:23:20 0° 102° (ESE) 5,039 7.6 -12.8°
